| time (UTC) | temp F | wind direction | speed knots | gust knots | rain 1hr in | rain 24hr in | rain mn in | humidity % | barometer mb |
| 20260503200050 | 63 | 349 | 0.0 | 3.5 | 0.00 | 0.00 | 0.00 | 26 | 1012.7 |
| 20260503194548 | 63 | 351 | 0.9 | 5.2 | 0.00 | 0.00 | 0.00 | 26 | 1012.8 |
| 20260503193047 | 63 | 349 | 0.9 | 4.3 | 0.00 | 0.00 | 0.00 | 27 | 1013.1 |
| 20260503191548 | 62 | 350 | 0.9 | 3.5 | 0.00 | 0.00 | 0.00 | 26 | 1013.2 |
| 20260503190057 | 62 | 349 | 0.9 | 5.2 | 0.00 | 0.00 | 0.00 | 26 | 1013.4 |
| 20260503184542 | 62 | 350 | 0.9 | 4.3 | 0.00 | 0.00 | 0.00 | 27 | 1013.8 |
| 20260503183040 | 61 | 351 | 0.9 | 5.2 | 0.00 | 0.00 | 0.00 | 28 | 1013.8 |
| 20260503181544 | 61 | 350 | 1.7 | 5.2 | 0.00 | 0.00 | 0.00 | 26 | 1014.3 |
| 20260503180040 | 61 | 348 | 0.0 | 4.3 | 0.00 | 0.00 | 0.00 | 28 | 1014.3 |
| 20260503174538 | 61 | 346 | 0.9 | 7.8 | 0.00 | 0.00 | 0.00 | 27 | 1014.5 |
| 20260503173037 | 61 | 348 | 0.0 | 3.5 | 0.00 | 0.00 | 0.00 | 28 | 1014.8 |
| 20260503171536 | 60 | 348 | 0.0 | 5.2 | 0.00 | 0.00 | 0.00 | 29 | 1015.2 |
| 20260503081536 | 33 | 355 | 0.0 | 0.0 | 0.00 | 0.00 | 0.00 | 87 | 1014.3 |
| 20260503071526 | 35 | 355 | 0.0 | 0.0 | 0.00 | 0.00 | 0.00 | 82 | 1014.0 |
| 20260503054506 | 40 | 355 | 0.0 | 0.0 | 0.00 | 0.00 | 0.00 | 64 | 1014.3 |
| 20260503053010 | 41 | 355 | 0.0 | 0.0 | 0.00 | 0.00 | 0.00 | 62 | 1014.3 |
| 20260503051500 | 42 | 355 | 0.0 | 0.0 | 0.00 | 0.00 | 0.00 | 60 | 1014.3 |
| 20260503050058 | 43 | 355 | 0.0 | 0.0 | 0.00 | 0.00 | 0.00 | 57 | 1014.3 |
| 20260503044558 | 43 | 355 | 0.0 | 0.0 | 0.00 | 0.00 | 0.00 | 55 | 1014.3 |
| 20260503043054 | 44 | 355 | 0.0 | 0.9 | 0.00 | 0.00 | 0.00 | 53 | 1014.3 |
| 20260503041553 | 44 | 355 | 0.0 | 0.9 | 0.00 | 0.00 | 0.00 | 52 | 1014.0 |
| 20260503040052 | 44 | 355 | 0.0 | 1.7 | 0.00 | 0.00 | 0.00 | 54 | 1013.8 |
| 20260503034551 | 44 | 355 | 0.0 | 0.0 | 0.00 | 0.00 | 0.00 | 60 | 1013.8 |
| 20260503033053 | 44 | 355 | 0.0 | 0.0 | 0.00 | 0.00 | 0.00 | 63 | 1013.7 |
| 20260503031550 | 43 | 355 | 0.0 | 1.7 | 0.00 | 0.00 | 0.00 | 65 | 1013.7 |
| 20260503030050 | 42 | 355 | 0.0 | 0.0 | 0.00 | 0.00 | 0.00 | 69 | 1013.7 |
| 20260503024548 | 43 | 355 | 0.0 | 0.0 | 0.00 | 0.00 | 0.00 | 69 | 1013.6 |
| 20260503023050 | 44 | 355 | 0.0 | 0.0 | 0.00 | 0.00 | 0.00 | 66 | 1013.2 |
| 20260503021547 | 45 | 355 | 0.0 | 0.0 | 0.00 | 0.00 | 0.00 | 64 | 1013.1 |
| 20260503020047 | 46 | 355 | 0.0 | 0.0 | 0.00 | 0.00 | 0.00 | 61 | 1012.9 |
| 20260503014545 | 48 | 355 | 0.0 | 0.0 | 0.00 | 0.00 | 0.00 | 57 | 1012.7 |
| 20260503013045 | 49 | 355 | 0.0 | 0.0 | 0.00 | 0.00 | 0.00 | 53 | 1012.6 |
| 20260503011545 | 50 | 355 | 0.0 | 0.0 | 0.00 | 0.00 | 0.00 | 51 | 1012.6 |
| 20260503010044 | 50 | 355 | 0.0 | 0.0 | 0.00 | 0.00 | 0.00 | 50 | 1012.4 |
| 20260503004544 | 51 | 355 | 0.0 | 0.9 | 0.00 | 0.00 | 0.00 | 47 | 1012.2 |
| 20260503003043 | 51 | 355 | 0.0 | 2.6 | 0.00 | 0.00 | 0.00 | 47 | 1012.1 |
| 20260503001543 | 51 | 355 | 0.0 | 2.6 | 0.00 | 0.00 | 0.00 | 46 | 1011.9 |
| 20260503000046 | 52 | 355 | 0.0 | 1.7 | 0.00 | 0.00 | 0.00 | 44 | 1011.7 |
| 20260502234550 | 53 | 351 | 0.0 | 3.5 | 0.00 | 0.00 | 0.00 | 43 | 1011.5 |
| 20260502233041 | 53 | 351 | 0.0 | 2.6 | 0.00 | 0.00 | 0.00 | 42 | 1011.5 |
| 20260502231545 | 54 | 355 | 0.0 | 3.5 | 0.00 | 0.00 | 0.00 | 43 | 1011.5 |
| 20260502230041 | 55 | 119 | 0.9 | 3.5 | 0.00 | 0.00 | 0.00 | 42 | 1011.5 |
| 20260502224540 | 53 | 355 | 0.0 | 1.7 | 0.00 | 0.00 | 0.00 | 44 | 1011.5 |
| 20260502223040 | 53 | 351 | 0.0 | 3.5 | 0.00 | 0.00 | 0.00 | 45 | 1011.8 |
| 20260502221539 | 53 | 355 | 0.9 | 3.5 | 0.00 | 0.00 | 0.00 | 45 | 1011.8 |
| 20260502220039 | 53 | 355 | 0.0 | 5.2 | 0.00 | 0.00 | 0.00 | 44 | 1011.7 |
| 20260502214543 | 54 | 351 | 0.0 | 3.5 | 0.00 | 0.00 | 0.00 | 45 | 1011.4 |
| 20260502213038 | 54 | 355 | 0.9 | 3.5 | 0.00 | 0.00 | 0.00 | 44 | 1011.5 |
| 20260502211539 | 54 | 351 | 0.0 | 4.3 | 0.00 | 0.00 | 0.00 | 44 | 1011.4 |
| 20260502210039 | 55 | 355 | 0.0 | 2.6 | 0.00 | 0.00 | 0.00 | 42 | 1011.4 |
| 20260502204536 | 56 | 351 | 0.9 | 3.5 | 0.00 | 0.00 | 0.00 | 39 | 1011.4 |
| 20260502203036 | 55 | 351 | 0.0 | 4.3 | 0.00 | 0.00 | 0.00 | 43 | 1011.6 |
| 20260502201542 | 54 | 351 | 0.0 | 2.6 | 0.00 | 0.00 | 0.00 | 42 | 1011.7 |